When you browse on this site, cookies collect data to enhance your experience and personalize the content and advertising you see.
Visit our Privacy Policy to learn more. By continuing to use the site, you agree to this use of cookies and data.
  • en Suisse
  • Liste des pays
  • À 7 jours
  • Température de l'eau
  • Carte météo
  • Widgets météo
  • user-avatar
    Se connecter

    Météo par heure à Cannes

    Ce jour, 14 Novembre, Jeudi

    Heure Température Précipitation Vent Pression Humidité
    00:00 +8°C° 0 mm 2 m/s 753 mmHg 68%
    01:00 +8°C° 0 mm 2 m/s 753 mmHg 66%
    02:00 +8°C° 0 mm 2 m/s 753 mmHg 65%
    03:00 +8°C° 0 mm 2 m/s 753 mmHg 63%
    04:00 +8°C° 0 mm 2 m/s 753 mmHg 64%
    05:00 +8°C° 0 mm 2 m/s 753 mmHg 64%
    06:00 +9°C° 0 mm 2 m/s 753 mmHg 67%
    07:00 +10°C° 0 mm 2 m/s 753 mmHg 68%
    08:00 +12°C° 0 mm 2 m/s 753 mmHg 69%
    09:00 +12°C° 0 mm 3 m/s 753 mmHg 70%
    10:00 +12°C° 0 mm 4 m/s 752 mmHg 70%
    11:00 +13°C° 0 mm 6 m/s 751 mmHg 71%
    12:00 +12°C° 0 mm 8 m/s 751 mmHg 72%
    13:00 +11°C° 0.9 mm 9 m/s 750 mmHg 76%
    14:00 +11°C° 0.9 mm 10 m/s 749 mmHg 81%
    15:00 +9°C° 0.9 mm 10 m/s 748 mmHg 86%
    16:00 +9°C° 10 mm 10 m/s 748 mmHg 89%
    17:00 +10°C° 10 mm 9 m/s 747 mmHg 93%
    18:00 +8°C° 10 mm 9 m/s 747 mmHg 96%
    19:00 +9°C° 7.3 mm 7 m/s 747 mmHg 95%
    20:00 +9°C° 7.3 mm 6 m/s 746 mmHg 94%
    21:00 +8°C° 7.3 mm 4 m/s 746 mmHg 93%
    22:00 +8°C° 3.1 mm 4 m/s 746 mmHg 92%
    23:00 +9°C° 3.1 mm 3 m/s 746 mmHg 91%

    Demain, 15 Novembre, Vendredi

    Heure Température Précipitation Vent Pression Humidité
    00:00 +9°C° 3.1 mm 3 m/s 746 mmHg 90%
    01:00 +9°C° 0.4 mm 3 m/s 746 mmHg 89%
    02:00 +8°C° 0.4 mm 3 m/s 747 mmHg 89%
    03:00 +8°C° 0.4 mm 3 m/s 748 mmHg 89%
    04:00 +7°C° 0.1 mm 4 m/s 748 mmHg 88%
    05:00 +7°C° 0.1 mm 4 m/s 749 mmHg 87%
    06:00 +6°C° 0.1 mm 4 m/s 749 mmHg 86%
    07:00 +8°C° 0 mm 3 m/s 750 mmHg 84%
    08:00 +9°C° 0 mm 2 m/s 750 mmHg 82%
    09:00 +9°C° 0 mm 2 m/s 750 mmHg 79%
    10:00 +11°C° 0 mm 1 m/s 750 mmHg 76%
    11:00 +11°C° 0 mm 1 m/s 750 mmHg 73%
    12:00 +12°C° 0 mm 1 m/s 750 mmHg 70%
    13:00 +10°C° 0.2 mm 2 m/s 750 mmHg 72%
    14:00 +10°C° 0.2 mm 3 m/s 749 mmHg 75%
    15:00 +8°C° 0.2 mm 5 m/s 749 mmHg 77%
    16:00 +8°C° 1.7 mm 5 m/s 749 mmHg 81%
    17:00 +7°C° 1.7 mm 6 m/s 749 mmHg 85%
    18:00 +7°C° 1.7 mm 6 m/s 749 mmHg 89%
    19:00 +6°C° 1.7 mm 7 m/s 750 mmHg 89%
    20:00 +7°C° 1.7 mm 8 m/s 751 mmHg 90%
    21:00 +7°C° 1.7 mm 8 m/s 751 mmHg 91%
    22:00 +7°C° 0.8 mm 8 m/s 752 mmHg 91%
    23:00 +8°C° 0.8 mm 7 m/s 753 mmHg 90%

    Après-demain, 16 Novembre, Samedi

    Heure Température Précipitation Vent Pression Humidité
    00:00 +8°C° 0.8 mm 6 m/s 753 mmHg 90%
    01:00 +7°C° 0.1 mm 5 m/s 754 mmHg 90%
    02:00 +7°C° 0.1 mm 4 m/s 754 mmHg 90%
    03:00 +7°C° 0.1 mm 3 m/s 755 mmHg 90%
    04:00 +7°C° 0 mm 2 m/s 755 mmHg 90%
    05:00 +7°C° 0 mm 2 m/s 756 mmHg 89%
    06:00 +8°C° 0 mm 1 m/s 756 mmHg 89%
    07:00 +7°C° 0 mm 2 m/s 757 mmHg 86%
    08:00 +8°C° 0 mm 2 m/s 757 mmHg 84%
    09:00 +9°C° 0 mm 2 m/s 757 mmHg 81%
    10:00 +10°C° 0 mm 3 m/s 757 mmHg 77%
    11:00 +10°C° 0 mm 3 m/s 757 mmHg 73%
    12:00 +11°C° 0 mm 4 m/s 757 mmHg 69%
    13:00 +10°C° 0 mm 5 m/s 756 mmHg 70%
    14:00 +9°C° 0 mm 5 m/s 756 mmHg 71%
    15:00 +9°C° 0 mm 6 m/s 756 mmHg 72%
    16:00 +8°C° 0 mm 6 m/s 755 mmHg 71%
    17:00 +8°C° 0 mm 6 m/s 755 mmHg 70%
    18:00 +7°C° 0 mm 6 m/s 755 mmHg 69%
    19:00 +7°C° 0 mm 6 m/s 754 mmHg 69%
    20:00 +7°C° 0 mm 5 m/s 754 mmHg 68%
    21:00 +7°C° 0 mm 5 m/s 753 mmHg 68%
    22:00 +7°C° 0.1 mm 4 m/s 752 mmHg 69%
    23:00 +8°C° 0.1 mm 3 m/s 751 mmHg 70%

    17 Novembre, Dimanche

    Heure Température Précipitation Vent Pression Humidité
    00:00 +8°C° 0.1 mm 2 m/s 750 mmHg 71%
    01:00 +8°C° 0.3 mm 2 m/s 749 mmHg 74%
    02:00 +8°C° 0.3 mm 2 m/s 748 mmHg 76%
    03:00 +8°C° 0.3 mm 3 m/s 747 mmHg 79%
    04:00 +8°C° 2.3 mm 3 m/s 746 mmHg 83%
    05:00 +6°C° 2.3 mm 4 m/s 746 mmHg 87%
    06:00 +6°C° 2.3 mm 4 m/s 746 mmHg 91%
    07:00 +6°C° 1.4 mm 4 m/s 746 mmHg 90%
    08:00 +8°C° 1.4 mm 3 m/s 746 mmHg 90%
    09:00 +8°C° 1.4 mm 3 m/s 746 mmHg 90%
    10:00 +8°C° 0.2 mm 3 m/s 747 mmHg 89%
    11:00 +8°C° 0.2 mm 2 m/s 747 mmHg 89%
    12:00 +9°C° 0.2 mm 2 m/s 748 mmHg 88%
    13:00 +9°C° 0 mm 3 m/s 748 mmHg 89%
    14:00 +9°C° 0 mm 3 m/s 748 mmHg 89%
    15:00 +8°C° 0 mm 3 m/s 749 mmHg 90%
    16:00 +8°C° 0.2 mm 3 m/s 749 mmHg 90%
    17:00 +8°C° 0.2 mm 3 m/s 750 mmHg 90%
    18:00 +7°C° 0.2 mm 4 m/s 750 mmHg 90%
    19:00 +7°C° 0.1 mm 4 m/s 751 mmHg 89%
    20:00 +7°C° 0.1 mm 4 m/s 751 mmHg 89%
    21:00 +6°C° 0.1 mm 4 m/s 752 mmHg 88%
    22:00 +6°C° 0.1 mm 4 m/s 752 mmHg 89%
    23:00 +6°C° 0.1 mm 4 m/s 752 mmHg 89%

    18 Novembre, Lundi

    Heure Température Précipitation Vent Pression Humidité
    00:00 +6°C° 0.1 mm 4 m/s 752 mmHg 90%
    01:00 +6°C° 0.1 mm 4 m/s 753 mmHg 90%
    02:00 +7°C° 0.1 mm 3 m/s 753 mmHg 90%
    03:00 +7°C° 0.1 mm 3 m/s 753 mmHg 90%
    04:00 +7°C° 0.3 mm 3 m/s 753 mmHg 90%
    05:00 +7°C° 0.3 mm 3 m/s 753 mmHg 90%
    06:00 +7°C° 0.3 mm 3 m/s 754 mmHg 90%
    07:00 +8°C° 0.4 mm 2 m/s 754 mmHg 88%
    08:00 +8°C° 0.4 mm 2 m/s 754 mmHg 87%
    09:00 +9°C° 0.4 mm 2 m/s 755 mmHg 85%
    10:00 +9°C° 0.3 mm 2 m/s 755 mmHg 86%
    11:00 +9°C° 0.3 mm 2 m/s 755 mmHg 87%
    12:00 +9°C° 0.3 mm 3 m/s 755 mmHg 88%
    13:00 +9°C° 0.2 mm 2 m/s 755 mmHg 88%
    14:00 +9°C° 0.2 mm 2 m/s 755 mmHg 88%
    15:00 +9°C° 0.2 mm 2 m/s 755 mmHg 88%
    16:00 +8°C° 0 mm 2 m/s 756 mmHg 87%
    17:00 +8°C° 0 mm 2 m/s 756 mmHg 86%
    18:00 +7°C° 0 mm 2 m/s 757 mmHg 86%
    19:00 +7°C° 0 mm 2 m/s 757 mmHg 84%
    20:00 +7°C° 0 mm 2 m/s 757 mmHg 83%
    21:00 +6°C° 0 mm 2 m/s 758 mmHg 82%
    22:00 +6°C° 0 mm 2 m/s 758 mmHg 81%
    23:00 +6°C° 0 mm 2 m/s 758 mmHg 80%

    19 Novembre, Mardi

    Heure Température Précipitation Vent Pression Humidité
    00:00 +6°C° 0 mm 2 m/s 759 mmHg 80%
    01:00 +6°C° 0 mm 2 m/s 759 mmHg 79%
    02:00 +5°C° 0 mm 2 m/s 759 mmHg 79%
    03:00 +5°C° 0 mm 2 m/s 759 mmHg 79%
    04:00 +5°C° 0 mm 2 m/s 759 mmHg 78%
    05:00 +5°C° 0 mm 2 m/s 760 mmHg 77%
    06:00 +5°C° 0 mm 2 m/s 760 mmHg 77%
    07:00 +6°C° 0 mm 2 m/s 760 mmHg 76%
    08:00 +7°C° 0 mm 2 m/s 761 mmHg 76%
    09:00 +9°C° 0 mm 1 m/s 761 mmHg 75%
    10:00 +10°C° 0 mm 1 m/s 761 mmHg 74%
    11:00 +11°C° 0 mm 1 m/s 761 mmHg 73%
    12:00 +12°C° 0 mm 1 m/s 761 mmHg 73%
    13:00 +12°C° 0 mm 1 m/s 761 mmHg 74%
    14:00 +11°C° 0 mm 1 m/s 761 mmHg 75%
    15:00 +11°C° 0 mm 1 m/s 761 mmHg 76%
    16:00 +10°C° 0 mm 1 m/s 762 mmHg 76%
    17:00 +8°C° 0 mm 1 m/s 762 mmHg 76%
    18:00 +7°C° 0 mm 1 m/s 762 mmHg 76%
    19:00 +6°C° 0 mm 2 m/s 763 mmHg 76%
    20:00 +6°C° 0 mm 2 m/s 763 mmHg 76%
    21:00 +6°C° 0 mm 2 m/s 763 mmHg 76%
    22:00 +6°C° 0 mm 2 m/s 763 mmHg 75%
    23:00 +6°C° 0 mm 2 m/s 763 mmHg 75%
    Voir plus